Location: Newark
(45.0500°N, 9.5500°E)
Time: 12:59:48
(UTC+00:00)

N. Korean satellite - Pass Details

Date: 03 April 2020
Orbit: 455 x 504 km, 97.2° (Epoch: 01 June)

Event Time Altitude Azimuth Distance (km) Brightness Sun altitude
Rises 04:20:25 0° 27° (NNE) 2,497 10.9 -7.4°
Reaches altitude 10° 04:22:53 10° 44° (NE) 1,611 10.3 -6.9°
Maximum altitude 04:25:29 20° 94° (E) 1,121 9.6 -6.5°
Drops below altitude 10° 04:28:04 10° 143° (SE) 1,593 9.5 -6.1°
Sets 04:30:29 0° 161° (SSE) 2,459 10.2 -5.6°
